[[{"header":{"parameterUnit":"m.s-1","parameterCategory":1,"la1":30.2991,"la2":30.254,"lo1":-89.0895,"lo2":-89.0444,"dy":0.0017,"dx":0.0017,"nx":28,"ny":28,"refTime":"2025-05-18T21:00:00:Z","depth":0,"parameterNumber":2,"parameterNumberName":"U-component_of_WINDS"},"data":[0,0,0,0,0,0,0,0,0,0,0,0,0,0,0,0,0,0,0,0,0,0,0,0,0,0,0,0,0,0,0,0,0,0,0,0,0,0,0,0,0,0,0,0,0,0,0,0,0,0,0,0,0,0,0,0,0,0,0.7419,0.7419,0,0.74,0.74,0.7399,0.7367,0.7367,0.7366,0.7366,0.7347,0.7348,0.7348,0,0,0,0,0,0,0,0,0,0,0,0,0,0.7427,0.7428,0.7419,0.7419,0.7418,0.74,0.74,0.7399,0.7368,0.7367,0.7366,0.7365,0.7347,0.7347,0.7348,0,0,0,0,0,0,0,0,0,0,0,0,0,0.7418,0.7428,0.7419,0.74,0.7398,0.74,0.74,0.7399,0.7368,0.7367,0.7366,0.7365,0.7347,0.7347,0.7348,0.7366,0,0,0.7348,0.7348,0,0,0,0,0,0,0,0,0.7418,0.7417,0.7403,0.7402,0.7399,0.7385,0.7396,0.7388,0.7368,0.7379,0.7366,0.7365,0.7361,0.736,0.7358,0.7365,0.7365,0.7348,0.7348,0.7348,0.7348,0,0,0,0,0,0,0,0.7419,0.7418,0.7411,0.7403,0.7401,0.7393,0.739,0.7394,0.7375,0.7378,0.7376,0.7374,0.736,0.7358,0.7358,0.7364,0.7348,0.7348,0.7348,0.7348,0.7384,0.7385,0,0,0,0,0,0,0.7422,0.7419,0.7412,0.7411,0.7407,0.7393,0.7391,0.7391,0.7375,0.7372,0.7375,0.7373,0.7358,0.7357,0.7357,0.7377,0.7348,0.7348,0.7348,0.7384,0.7385,0.7386,0,0,0,0,0,0,0.7423,0.7422,0.7413,0.7414,0.7412,0.7394,0.7394,0.7391,0.7389,0.7373,0.7369,0.7377,0.7358,0.7357,0.7364,0.7376,0.7348,0.7348,0.7382,0.7384,0.7385,0.7417,0,0,0,0,0,0,0.7423,0.7422,0.7429,0.7415,0.7412,0.742,0.7395,0.7391,0.7389,0.7386,0.7374,0.7371,0.7357,0.7364,0.7364,0.7375,0.7348,0.7381,0.7383,0.7385,0.7415,0.7419,0.7423,0,0,0,0,0,0.7424,0.744,0.743,0.7429,0.7421,0.7421,0.742,0.7403,0.7391,0.7397,0.7386,0.7371,0.7374,0.7365,0.7365,0.7376,0.7381,0.7383,0.7385,0.7413,0.7419,0.7423,0,0,0,0,0,0,0.7457,0.7438,0.7426,0.7438,0.7432,0.7416,0.7424,0.741,0.7407,0.7404,0.7384,0.7381,0.7391,0.7384,0.7374,0.7393,0.7375,0.7377,0.7397,0.7402,0.7406,0.7407,0.7349,0,0,0,0,0,0.7466,0.7468,0.745,0.7463,0.746,0.7442,0.7442,0.7429,0.7422,0.7419,0.7408,0.7402,0.7401,0.7401,0.74,0.7414,0.741,0.7422,0.7426,0.7429,0.7431,0.7437,0.7442,0.7392,0.7392,0.7392,0,0,0.7484,0.7474,0.7476,0.7469,0.7462,0.7464,0.744,0.7444,0.7445,0.7419,0.7425,0.7417,0.7408,0.7419,0.7423,0.7413,0.7444,0.7432,0.7435,0.7435,0.744,0.7444,0.7448,0.7394,0.7393,0.7393,0,0,0.7519,0.7511,0.752,0.7513,0.7503,0.7491,0.7493,0.7479,0.7472,0.7477,0.7458,0.7459,0.7459,0.7453,0.745,0.748,0.7465,0.748,0.7502,0.7508,0.7511,0.7515,0.7525,0.7529,0.7482,0.7482,0.7482,0,0.7543,0.7545,0.7526,0.753,0.7527,0.7504,0.7512,0.7507,0.7497,0.7495,0.7485,0.7482,0.7475,0.7483,0.749,0.7489,0.749,0.7481,0.7512,0.7516,0.7518,0.7528,0.7532,0.7484,0.7484,0.7484,0.7483,0,0.7574,0.7576,0.7584,0.7574,0.7572,0.7579,0.7561,0.7561,0.7548,0.7538,0.7543,0.7532,0.7528,0.7529,0.7517,0.7535,0.7529,0.7516,0.7498,0.7525,0.7533,0.7537,0.7487,0.7486,0.7485,0.7485,0,0,0.763,0.7609,0.7612,0.7606,0.7593,0.7594,0.7598,0.7593,0.7593,0.7587,0.759,0.759,0.7577,0.7573,0.756,0.7566,0.7589,0.7551,0.7551,0.7558,0.7607,0.7616,0.7621,0.7579,0.758,0.758,0.7607,0,0.7661,0.7668,0.7651,0.7662,0.7662,0.7639,0.7643,0.7635,0.7625,0.7624,0.7613,0.7612,0.7595,0.7593,0.7597,0.7585,0.7598,0.7583,0.7582,0.7582,0.7584,0.7625,0.7636,0.7662,0.761,0.7611,0.7611,0,0.7698,0.7692,0.7703,0.7688,0.7687,0.7691,0.7685,0.7684,0.7674,0.7666,0.7661,0.7646,0.7649,0.7632,0.7636,0.7626,0.7624,0.7618,0.7618,0.7617,0.7598,0.7625,0.767,0.7674,0.7616,0.7616,0.7616,0,0.7736,0.7732,0.7737,0.7734,0.7716,0.7719,0.7712,0.7701,0.7698,0.7692,0.769,0.7685,0.7682,0.7678,0.7662,0.7651,0.7667,0.7649,0.766,0.7661,0.7665,0.7665,0.771,0.7665,0.7665,0.7665,0.7665,0,0.7772,0.778,0.7754,0.7758,0.7765,0.7745,0.7753,0.7743,0.7733,0.7734,0.7714,0.7715,0.7694,0.7692,0.768,0.7684,0.7683,0.7676,0.7673,0.7678,0.7679,0.7676,0.7674,0.7666,0.7665,0.7665,0.7665,0,0.7816,0.78,0.7804,0.7786,0.7782,0.7788,0.7773,0.7775,0.7763,0.7764,0.7764,0.7745,0.7742,0.7725,0.7719,0.771,0.7719,0.7712,0.7722,0.772,0.7732,0.7731,0.7777,0.7781,0.7734,0.7735,0.7735,0,0.784,0.7845,0.7828,0.7826,0.782,0.7819,0.7816,0.7796,0.7794,0.7782,0.7785,0.7781,0.7776,0.7773,0.7759,0.7754,0.7746,0.7762,0.7745,0.775,0.7745,0.7745,0.7745,0.7766,0.7767,0.7767,0.7768,0,0.7884,0.7875,0.7871,0.7865,0.7862,0.7855,0.7848,0.7848,0.7826,0.7825,0.7821,0.7818,0.7811,0.7806,0.7798,0.7791,0.7775,0.7773,0.7775,0.778,0.7786,0.7782,0.7732,0.7772,0.7772,0.7771,0.7771,0.7771,0.7918,0.7921,0.7908,0.7905,0.7897,0.789,0.7891,0.7879,0.7876,0.7868,0.7857,0.7855,0.7843,0.7831,0.7824,0.7822,0.7814,0.7817,0.7818,0.7819,0.7821,0.7786,0.7821,0.7821,0.7821,0.782,0.782,0,0.7959,0.795,0.7947,0.7937,0.7934,0.7919,0.791,0.7909,0.7907,0.7898,0.7893,0.7889,0.7884,0.7869,0.7863,0.7864,0.7857,0.7863,0.7862,0.7861,0.783,0.7828,0.7869,0.7869,0.7869,0.7869,0.7869,0.7869,0.7981,0.7984,0.7974,0.7973,0.7964,0.7962,0.7958,0.7951,0.7943,0.7939,0.7935,0.7925,0.7913,0.7906,0.79,0.7896,0.7894,0.7903,0.7896,0.7868,0.7863,0.7859,0.7857,0.7903,0.7903,0.7927,0.7927,0.7927]},{"header":{"parameterUnit":"m.s-1","parameterCategory":1,"la1":30.2991,"la2":30.254,"lo1":-89.0895,"lo2":-89.0444,"dy":0.0017,"dx":0.0017,"nx":28,"ny":28,"refTime":"2025-05-18T21:00:00:Z","depth":0,"parameterNumber":3,"parameterNumberName":"V-component_of_WINDS"},"data":[0,0,0,0,0,0,0,0,0,0,0,0,0,0,0,0,0,0,0,0,0,0,0,0,0,0,0,0,0,0,0,0,0,0,0,0,0,0,0,0,0,0,0,0,0,0,0,0,0,0,0,0,0,0,0,0,0,0,6.9167,6.9167,0,6.919,6.919,6.919,6.9161,6.916,6.9159,6.9158,6.9178,6.918,6.9181,0,0,0,0,0,0,0,0,0,0,0,0,0,6.9094,6.9095,6.9167,6.9167,6.9167,6.919,6.919,6.9191,6.9162,6.916,6.9159,6.9158,6.9178,6.9179,6.9181,0,0,0,0,0,0,0,0,0,0,0,0,0,6.9122,6.9096,6.9167,6.9156,6.9155,6.919,6.919,6.9191,6.9162,6.916,6.9159,6.9157,6.9177,6.9179,6.9181,6.9227,0,0,6.9188,6.9189,0,0,0,0,0,0,0,0,6.912,6.9125,6.9157,6.9156,6.9156,6.9171,6.9172,6.9203,6.9162,6.9159,6.9158,6.9156,6.9177,6.9179,6.9187,6.9228,6.9229,6.9189,6.919,6.9191,6.9192,0,0,0,0,0,0,0,6.9119,6.9123,6.9176,6.9157,6.9157,6.9148,6.9151,6.9178,6.9176,6.9159,6.9157,6.9161,6.9176,6.9185,6.9187,6.9229,6.9189,6.9191,6.9192,6.9193,6.931,6.9312,0,0,0,0,0,0,6.9118,6.9122,6.9175,6.9176,6.9134,6.9151,6.9154,6.9168,6.9176,6.9176,6.9162,6.9159,6.9182,6.9184,6.9188,6.9242,6.9191,6.9193,6.9194,6.9308,6.931,6.9312,0,0,0,0,0,0,6.9117,6.9123,6.9174,6.9149,6.9155,6.9154,6.917,6.9169,6.9177,6.9178,6.9177,6.9171,6.918,6.9184,6.9218,6.9242,6.9194,6.9196,6.9306,6.9309,6.9311,6.9351,0,0,0,0,0,0,6.9115,6.9123,6.9141,6.9149,6.9156,6.9205,6.9172,6.9171,6.9182,6.9179,6.9186,6.9186,6.9179,6.9215,6.922,6.9245,6.9198,6.9304,6.9307,6.9311,6.9348,6.9355,6.9361,0,0,0,0,0,6.9112,6.915,6.9142,6.9148,6.9179,6.9206,6.921,6.9203,6.9184,6.9202,6.9202,6.9186,6.9239,6.9218,6.9224,6.925,6.9302,6.9306,6.931,6.9345,6.9353,6.9361,0,0,0,0,0,0,6.9142,6.9151,6.9142,6.9184,6.9195,6.9202,6.9223,6.9212,6.9228,6.9224,6.9213,6.9215,6.9251,6.9254,6.9231,6.9295,6.9267,6.9273,6.9292,6.93,6.9306,6.9305,6.92,0,0,0,0,0,6.9154,6.9177,6.9183,6.9219,6.9225,6.9224,6.9235,6.9229,6.924,6.9244,6.9247,6.9256,6.9275,6.9288,6.9305,6.9348,6.935,6.9369,6.9375,6.9381,6.9385,6.9409,6.9418,6.9325,6.9325,6.9325,0,0,6.9177,6.9185,6.92,6.9225,6.9233,6.9256,6.9228,6.9253,6.927,6.9247,6.9279,6.9282,6.9292,6.9331,6.9348,6.9335,6.9411,6.9386,6.939,6.9392,6.9414,6.9423,6.943,6.9328,6.9328,6.9327,0,0,6.9232,6.9241,6.9272,6.9282,6.9295,6.9294,6.9302,6.9311,6.9312,6.9345,6.9329,6.9348,6.9381,6.9389,6.9398,6.9459,6.9444,6.9465,6.9499,6.9522,6.953,6.9536,6.9558,6.9566,6.9469,6.947,6.947,0,6.9259,6.9295,6.9289,6.9317,6.9329,6.9311,6.9343,6.9352,6.9369,6.9377,6.9362,6.9404,6.9409,6.945,6.9466,6.9473,6.9481,6.9463,6.9529,6.9536,6.9541,6.9562,6.957,6.9472,6.9472,6.9471,6.9471,0,6.9328,6.9354,6.9377,6.9397,6.9412,6.9441,6.9439,6.9454,6.9447,6.9448,6.9481,6.9488,6.9507,6.9516,6.9509,6.9557,6.9548,6.9531,6.9503,6.9553,6.9572,6.958,6.9475,6.9474,6.9474,6.9473,0,0,6.9401,6.9419,6.9428,6.9437,6.9452,6.9471,6.9499,6.952,6.9533,6.9546,6.957,6.9599,6.9584,6.9594,6.9588,6.9608,6.9656,6.9589,6.9589,6.9601,6.971,6.9722,6.9731,6.9647,6.9649,6.965,6.9709,0,6.9456,6.9508,6.9504,6.9552,6.9576,6.9561,6.9586,6.9597,6.9599,6.9618,6.9619,6.964,6.9619,6.9625,6.9645,6.9646,6.9678,6.9642,6.9668,6.9669,6.9666,6.9741,6.9753,6.9808,6.9716,6.9717,6.9718,0,6.9527,6.9546,6.9597,6.961,6.9619,6.9642,6.9661,6.968,6.9692,6.9692,6.9705,6.9695,6.9723,6.9696,6.9735,6.9711,6.9721,6.9724,6.9726,6.9727,6.9696,6.9744,6.9826,6.9834,6.973,6.9729,6.9728,0,6.9575,6.9612,6.9648,6.9657,6.9672,6.9689,6.9696,6.9707,6.972,6.9736,6.9744,6.9763,6.9773,6.9788,6.9784,6.9764,6.9823,6.9795,6.9823,6.9824,6.9836,6.9835,6.992,6.9843,6.9843,6.9843,6.9843,0,6.9637,6.9669,6.967,6.9692,6.9727,6.9723,6.9758,6.9762,6.9773,6.9795,6.9783,6.9803,6.9797,6.9817,6.9813,6.9846,6.9851,6.9851,6.9849,6.9852,6.9852,6.9858,6.9854,6.9845,6.9845,6.9844,6.9844,0,6.9695,6.9698,6.9736,6.9749,6.9753,6.9778,6.9789,6.9809,6.9811,6.9839,6.9845,6.9847,6.987,6.9868,6.9893,6.9891,6.9932,6.9926,6.9928,6.9927,6.9955,6.9952,7.0046,7.0058,6.9974,6.9975,6.9976,0,6.9734,6.9759,6.9776,6.9791,6.98,6.9823,6.9837,6.9834,6.9849,6.9867,6.9885,6.9907,6.9925,6.9963,6.9966,6.9985,6.9979,7.0011,6.9982,6.9984,6.998,6.9978,6.9981,7.0016,7.0017,7.0018,7.0019,0,6.9804,6.9804,6.9826,6.9849,6.9867,6.9884,6.9899,6.9912,6.9911,6.9928,6.9953,6.9967,6.9994,7.0016,7.0035,7.0041,7.003,7.0028,7.0036,7.0038,7.0038,7.0039,6.9943,7.0026,7.0025,7.0025,7.0024,7.0024,6.9853,6.9875,6.9891,6.9916,6.9928,6.9944,6.9964,6.997,6.9991,7.0014,7.0011,7.0039,7.0051,7.0076,7.0084,7.0105,7.0093,7.0104,7.0106,7.0109,7.0113,7.0036,7.0108,7.0108,7.0108,7.0108,7.0107,0,6.9922,6.9932,6.9956,6.9979,6.9999,6.9989,7.0007,7.0023,7.0049,7.0062,7.0081,7.011,7.0132,7.0138,7.0159,7.0175,7.017,7.018,7.0178,7.018,7.0122,7.0113,7.0184,7.0184,7.0184,7.0184,7.0184,7.0184,6.996,6.9997,7.0,7.0042,7.0052,7.0081,7.0092,7.0106,7.0117,7.015,7.017,7.0174,7.0184,7.0207,7.0226,7.0227,7.0235,7.0248,7.0247,7.0192,7.0184,7.0177,7.0169,7.025,7.025,7.0303,7.0304,7.0304]}]]